STARLINK-34100 (64385 NORAD) Tracking and Keplerian Element Data

This shows tracking and keplerian element data for the satellite.

Feedback or suggestion? Click here.




ElementValue
Catalog64385
NameSTARLINK-34100
Epoch Orbit3025
Epoch Day354.1785937
Epoch Year2025
RAAN269.1067
Inclination43
Eccentricity0.0001437
Argument of Perigee265.6523
Mean Anonmoly94.4164
Mean Motion15.27592081
Decay Rate0.00012825
L11 64385U 25127R 25354.17859370 .00012825 00000+0 47458-3 0 9990
L22 64385 43.0000 269.1067 0001437 265.6523 94.4164 15.27592081 30258



Live tracking and technical data element details for STARLINK-34100 (NORAD 64385). STARLINK-34100 can be tracked NOW for your location showing map with azimuth and elevation plus other details from your city location.







IsCatalogInMostPopularTable: catalog: 64385, numindb: 7
Update: records affected: 1



GetName: 64385 STARLINK-34100

Hit Count: updated at: Sat, 11 Apr 2026 20:03:40 GMT